Temp
-6 -6 -6 -6 -6 -6 -6 -5 -5 -5 -5 -5 -5 -6 -6 -6 -6 -6 -6 -6 -6 -6 -6 -6 -6 -6 -6 -7 -7 -7 -7 -7 -8 -8 -8 -8 -8 -8 -8 -8 -8 -8 -7 -7 -7 -7 -7 -7 -7
-6 -5 -5 -5 -6 -6 -6 -6 -6 -5 -5 -5 -5 -5 -5 -6 -6 -6 -6 -6 -7 -6 -6 -6 -6 -7 -7 -7 -7 -7 -7 -7 -8 -8 -8 -8 -8 -7 -8 -8 -8 -7 -7 -7 -7 -7 -7 -7 -7
-5 -5 -5 -5 -5 -5 -5 -5 -5 -5 -5 -5 -5 -5 -5 -6 -6 -6 -6 -6 -7 -6 -6 -7 -6 -7 -7 -7 -7 -7 -7 -8 -8 -8 -8 -8 -8 -8 -8 -7 -8 -7 -7 -7 -7 -7 -7 -7 -7
-6 -6 -5 -6 -6 -6 -6 -6 -5 -5 -5 -5 -5 -5 -6 -6 -6 -6 -6 -7 -7 -6 -6 -7 -7 -7 -7 -7 -7 -7 -7 -7 -7 -8 -8 -8 -8 -8 -8 -8 -7 -7 -7 -7 -7 -7 -7 -7 -7
-6 -6 -6 -5 -5 -5 -5 -5 -4 -5 -5 -5 -5 -6 -6 -6 -6 -6 -6 -6 -7 -6 -6 -7 -7 -7 -7 -7 -7 -7 -7 -7 -8 -7 -7 -8 -8 -8 -8 -8 -8 -7 -7 -7 -7 -7 -7 -8 -7
-7 -6 -6 -6 -6 -6 -5 -5 -5 -6 -6 -6 -6 -6 -6 -6 -6 -6 -6 -6 -6 -7 -7 -7 -7 -7 -7 -7 -7 -7 -7 -7 -7 -8 -7 -8 -8 -8 -8 -8 -8 -8 -7 -7 -7 -7 -7 -7 -7
-8 -6 -5 -6 -6 -7 -6 -5 -6 -7 -7 -6 -6 -7 -6 -6 -7 -6 -7 -7 -6 -7 -6 -7 -7 -7 -7 -7 -7 -7 -7 -6 -7 -7 -7 -7 -7 -7 -8 -7 -7 -7 -7 -7 -7 -7 -7 -7 -7
-7 -6 -5 -7 -7 -7 -6 -6 -6 -7 -7 -7 -7 -7 -7 -7 -7 -6 -7 -7 -7 -7 -7 -7 -7 -7 -6 -7 -7 -7 -6 -6 -6 -7 -7 -7 -7 -7 -7 -7 -7 -7 -7 -7 -7 -7 -7 -7 -7
-6 -6 -6 -7 -7 -7 -6 -6 -6 -7 -7 -7 -7 -7 -7 -7 -7 -7 -7 -7 -7 -6 -7 -7 -7 -7 -7 -6 -6 -6 -6 -6 -6 -6 -7 -7 -6 -7 -7 -7 -7 -7 -7 -7 -7 -7 -7 -6 -6
-6 -8 -8 -7 -6 -6 -6 -6 -7 -7 -7 -7 -7 -8 -7 -7 -7 -7 -7 -7 -7 -7 -7 -7 -7 -6 -7 -6 -7 -7 -6 -6 -6 -6 -6 -6 -6 -6 -6 -6 -6 -6 -7 -7 -7 -7 -7 -6 -6
-7 -8 -8 -7 -7 -7 -7 -7 -7 -7 -7 -8 -8 -8 -8 -8 -8 -7 -7 -7 -7 -7 -7 -7 -6 -6 -6 -6 -6 -6 -6 -6 -6 -6 -6 -6 -6 -6 -6 -6 -6 -6 -6 -6 -6 -6 -7 -6 -6
-8 -8 -8 -8 -7 -7 -7 -7 -7 -8 -7 -8 -8 -7 -7 -8 -8 -8 -8 -8 -7 -7 -7 -7 -6 -6 -6 -6 -6 -6 -6 -6 -6 -6 -6 -6 -6 -6 -6 -6 -6 -6 -6 -6 -6 -6 -6 -6 -7
-8 -8 -8 -8 -8 -7 -7 -7 -7 -8 -8 -8 -8 -8 -7 -7 -7 -7 -8 -8 -7 -7 -7 -7 -7 -6 -7 -6 -7 -6 -6 -6 -6 -6 -7 -7 -7 -7 -6 -6 -6 -6 -6 -6 -6 -6 -6 -6 -6
-7 -7 -8 -8 -8 -7 -7 -8 -8 -7 -8 -7 -8 -8 -8 -8 -7 -7 -7 -7 -7 -7 -7 -7 -7 -7 -7 -7 -6 -6 -6 -6 -6 -6 -7 -7 -7 -7 -7 -7 -6 -6 -6 -6 -6 -6 -6 -6 -6
-6 -8 -8 -8 -7 -7 -7 -8 -8 -7 -8 -8 -7 -7 -8 -8 -8 -6 -6 -6 -7 -7 -7 -8 -7 -7 -7 -7 -7 -7 -6 -6 -6 -6 -6 -6 -7 -6 -6 -7 -7 -7 -6 -7 -6 -6 -6 -6 -6
-6 -7 -7 -8 -8 -8 -7 -8 -8 -8 -8 -7 -8 -8 -8 -8 -8 -7 -7 -7 -7 -7 -7 -7 -7 -7 -7 -7 -7 -7 -6 -5 -6 -6 -7 -7 -6 -6 -6 -7 -7 -7 -7 -7 -6 -6 -6 -6 -6
-8 -8 -7 -7 -8 -7 -7 -7 -7 -7 -8 -8 -7 -8 -8 -8 -8 -8 -8 -8 -8 -7 -7 -7 -7 -7 -7 -7 -8 -7 -7 -6 -6 -6 -7 -7 -6 -6 -7 -7 -7 -7 -7 -7 -7 -7 -7 -7 -6
-8 -8 -8 -8 -7 -7 -7 -7 -7 -7 -8 -8 -7 -7 -7 -8 -8 -7 -7 -7 -8 -8 -8 -7 -7 -6 -7 -8 -8 -7 -7 -7 -7 -7 -7 -6 -6 -7 -7 -7 -7 -7 -7 -7 -7 -7 -7 -7 -6
-8 -8 -8 -8 -7 -7 -7 -7 -7 -7 -7 -7 -7 -7 -7 -7 -7 -8 -8 -8 -8 -8 -8 -7 -7 -7 -7 -8 -8 -7 -7 -7 -7 -7 -7 -7 -7 -7 -7 -7 -7 -7 -7 -7 -7 -7 -7 -7 -7
-8 -8 -8 -8 -7 -7 -7 -7 -7 -6 -7 -7 -8 -7 -7 -6 -7 -8 -8 -8 -8 -8 -7 -7 -7 -7 -7 -8 -8 -7 -7 -7 -7 -7 -7 -7 -8 -8 -7 -7 -7 -7 -7 -7 -7 -7 -7 -7 -7
-8 -8 -8 -7 -7 -7 -7 -7 -7 -6 -7 -7 -7 -7 -7 -6 -6 -7 -8 -7 -7 -7 -7 -7 -7 -7 -7 -8 -7 -8 -7 -7 -7 -7 -7 -7 -7 -7 -7 -7 -7 -7 -8 -7 -7 -7 -7 -7 -7
-8 -8 -8 -7 -7 -7 -7 -7 -8 -6 -6 -7 -8 -7 -7 -6 -6 -7 -7 -8 -7 -6 -6 -6 -7 -8 -8 -8 -8 -8 -8 -8 -7 -7 -7 -7 -7 -7 -7 -7 -7 -7 -7 -7 -7 -7 -7 -7 -8
-8 -8 -7 -8 -8 -7 -6 -7 -8 -7 -6 -7 -7 -7 -7 -7 -6 -7 -7 -7 -7 -7 -7 -7 -7 -8 -8 -8 -8 -8 -8 -8 -8 -7 -7 -7 -7 -7 -7 -7 -7 -7 -8 -8 -7 -7 -8 -7 -7
-8 -7 -7 -8 -8 -7 -7 -7 -7 -7 -6 -7 -7 -8 -7 -6 -6 -6 -7 -7 -8 -7 -7 -7 -7 -8 -8 -9 -8 -8 -9 -9 -8 -7 -7 -7 -7 -7 -7 -7 -7 -7 -7 -7 -7 -7 -8 -8 -8
-8 -8 -8 -8 -8 -7 -7 -7 -7 -6 -7 -6 -7 -7 -7 -6 -6 -6 -7 -7 -7 -8 -8 -8 -8 -8 -9 -8 -9 -9 -9 -8 -8 -8 -8 -7 -7 -7 -7 -7 -7 -7 -7 -7 -7 -7 -8 -8 -7
-8 -8 -8 -8 -7 -8 -8 -7 -7 -7 -7 -7 -7 -8 -8 -7 -6 -6 -7 -7 -8 -8 -8 -8 -9 -9 -9 -9 -9 -9 -8 -8 -8 -8 -8 -8 -7 -8 -7 -7 -8 -8 -8 -7 -7 -7 -7 -7 -7
-8 -8 -8 -8 -8 -8 -8 -7 -7 -7 -6 -7 -7 -7 -8 -8 -7 -7 -6 -7 -8 -8 -8 -8 -8 -9 -8 -8 -8 -8 -8 -8 -7 -7 -7 -7 -7 -7 -7 -7 -7 -7 -7 -7 -7 -7 -7 -7 -7
-9 -8 -8 -9 -9 -8 -8 -7 -7 -8 -6 -7 -7 -7 -7 -7 -7 -7 -7 -7 -7 -7 -8 -9 -8 -8 -8 -7 -7 -7 -7 -7 -7 -7 -7 -7 -7 -6 -6 -7 -7 -7 -7 -7 -7 -7 -7 -7 -7
-9 -9 -9 -9 -9 -8 -7 -7 -8 -8 -7 -7 -7 -7 -7 -6 -6 -6 -7 -7 -7 -7 -8 -8 -8 -9 -8 -8 -7 -7 -7 -7 -7 -7 -7 -7 -7 -7 -7 -7 -7 -7 -7 -7 -7 -7 -7 -7 -6
-9 -9 -9 -9 -8 -8 -8 -6 -8 -8 -8 -7 -7 -6 -7 -6 -7 -6 -7 -7 -7 -8 -8 -8 -8 -8 -8 -8 -7 -8 -8 -8 -7 -7 -7 -7 -7 -7 -7 -6 -6 -6 -7 -7 -7 -7 -7 -7 -6
Height
5896 5895 5894 5892 5893 5889 5888 5887 5885 5884 5885 5884 5884 5884 5883 5883 5883 5885 5883 5883 5882 5882 5882 5881 5881 5881 5880 5880 5879 5880 5879 5880 5880 5881 5882 5882 5882 5883 5883 5884 5886 5887 5887 5888 5888 5889 5890 5890 5891
5899 5898 5896 5895 5894 5892 5890 5888 5885 5885 5886 5885 5885 5885 5884 5884 5883 5884 5884 5884 5884 5885 5884 5883 5882 5882 5881 5880 5881 5881 5881 5881 5881 5881 5882 5884 5885 5886 5886 5886 5888 5889 5890 5890 5890 5891 5893 5893 5894
5901 5900 5899 5897 5895 5893 5891 5890 5888 5888 5888 5887 5886 5885 5885 5885 5885 5885 5885 5885 5886 5887 5885 5885 5883 5883 5882 5881 5882 5882 5882 5882 5882 5883 5884 5885 5886 5887 5888 5888 5890 5891 5891 5892 5893 5893 5891 5894 5894
5903 5903 5901 5899 5898 5896 5894 5892 5891 5890 5889 5888 5887 5886 5886 5886 5885 5886 5886 5886 5888 5889 5887 5886 5885 5885 5884 5884 5883 5883 5883 5883 5883 5884 5885 5886 5887 5889 5890 5890 5892 5892 5893 5893 5894 5895 5897 5898 5898
5905 5904 5901 5900 5899 5898 5896 5895 5893 5891 5890 5889 5888 5887 5886 5886 5886 5887 5888 5887 5888 5889 5888 5887 5887 5886 5886 5885 5885 5884 5884 5884 5885 5885 5886 5887 5888 5890 5891 5891 5892 5894 5895 5895 5897 5897 5898 5897 5901
5907 5906 5903 5902 5900 5898 5897 5896 5895 5893 5891 5889 5888 5887 5887 5887 5887 5888 5888 5889 5890 5890 5889 5888 5889 5888 5888 5888 5887 5886 5886 5885 5886 5886 5886 5887 5889 5891 5891 5893 5893 5895 5896 5896 5897 5899 5900 5901 5901
5908 5907 5905 5903 5903 5902 5900 5898 5897 5896 5894 5890 5888 5886 5887 5886 5887 5888 5888 5889 5890 5890 5890 5890 5891 5890 5890 5890 5889 5889 5888 5887 5887 5888 5888 5889 5889 5890 5892 5892 5894 5896 5898 5899 5901 5902 5903 5903 5904
5910 5909 5907 5906 5904 5905 5902 5900 5898 5897 5895 5892 5890 5888 5888 5887 5888 5889 5888 5889 5890 5890 5890 5891 5891 5891 5892 5892 5892 5891 5891 5890 5890 5890 5890 5891 5893 5893 5894 5895 5896 5897 5899 5900 5901 5902 5903 5902 5903
5911 5909 5908 5909 5908 5907 5904 5902 5901 5899 5895 5893 5890 5889 5888 5888 5888 5888 5888 5889 5890 5891 5891 5891 5892 5892 5893 5894 5893 5892 5892 5892 5893 5893 5894 5895 5895 5896 5897 5898 5899 5900 5901 5903 5903 5903 5902 5902 5903
5910 5910 5911 5912 5911 5909 5906 5903 5902 5900 5896 5893 5889 5888 5887 5888 5888 5888 5889 5889 5890 5890 5892 5893 5893 5893 5893 5894 5894 5893 5894 5894 5895 5895 5895 5897 5898 5899 5898 5899 5901 5902 5903 5904 5905 5906 5905 5904 5905
5911 5912 5913 5912 5911 5910 5908 5905 5903 5900 5897 5894 5890 5888 5887 5886 5887 5888 5888 5890 5890 5891 5892 5893 5895 5895 5894 5895 5895 5894 5895 5895 5897 5897 5898 5899 5900 5900 5901 5902 5902 5903 5904 5905 5906 5907 5907 5907 5907
5912 5912 5913 5913 5911 5909 5908 5906 5905 5902 5899 5896 5891 5888 5887 5887 5887 5887 5889 5888 5890 5891 5891 5893 5894 5896 5896 5896 5895 5896 5897 5897 5899 5899 5900 5902 5903 5903 5903 5904 5905 5905 5906 5907 5908 5909 5909 5909 5909
5913 5913 5914 5914 5911 5910 5909 5907 5906 5905 5902 5899 5895 5890 5884 5883 5883 5884 5886 5888 5889 5890 5891 5891 5894 5895 5896 5897 5896 5898 5900 5900 5901 5901 5902 5904 5905 5904 5905 5906 5906 5907 5908 5909 5909 5909 5910 5910 5910
5914 5914 5916 5916 5915 5913 5911 5909 5907 5907 5903 5900 5896 5894 5888 5886 5881 5881 5883 5885 5887 5889 5890 5892 5893 5895 5896 5898 5898 5898 5900 5901 5901 5902 5903 5904 5905 5905 5905 5906 5907 5908 5909 5909 5909 5909 5910 5910 5910
5915 5916 5917 5918 5917 5916 5914 5912 5908 5907 5905 5901 5897 5893 5890 5886 5882 5878 5882 5885 5886 5888 5889 5890 5892 5895 5895 5899 5899 5900 5900 5900 5900 5901 5902 5904 5905 5906 5906 5907 5907 5908 5909 5910 5909 5910 5910 5910 5911
5916 5916 5917 5918 5917 5918 5917 5914 5911 5908 5906 5902 5899 5895 5889 5888 5883 5881 5884 5885 5886 5887 5888 5888 5890 5892 5895 5898 5900 5901 5900 5900 5899 5900 5901 5903 5905 5905 5906 5907 5908 5907 5907 5909 5909 5909 5909 5910 5910
5916 5916 5918 5917 5915 5917 5917 5915 5913 5911 5907 5903 5899 5896 5891 5889 5887 5888 5886 5884 5883 5885 5888 5888 5889 5892 5894 5897 5899 5901 5901 5899 5899 5898 5900 5902 5903 5904 5905 5906 5907 5905 5906 5909 5911 5910 5909 5909 5909
5916 5918 5917 5918 5919 5917 5916 5914 5913 5912 5910 5905 5900 5897 5893 5889 5887 5887 5886 5883 5880 5883 5886 5888 5888 5891 5892 5897 5899 5901 5901 5900 5898 5898 5901 5902 5903 5904 5905 5906 5906 5906 5906 5907 5909 5910 5908 5908 5909
5919 5917 5918 5918 5918 5918 5917 5914 5913 5911 5909 5906 5901 5897 5893 5891 5889 5888 5887 5884 5882 5883 5886 5885 5887 5890 5892 5897 5899 5902 5901 5901 5901 5901 5902 5902 5903 5904 5906 5906 5906 5907 5907 5908 5908 5908 5908 5909 5909
5918 5919 5918 5918 5917 5918 5917 5914 5912 5911 5909 5906 5903 5900 5894 5892 5890 5888 5888 5888 5887 5886 5886 5885 5886 5888 5891 5895 5898 5900 5901 5901 5902 5901 5902 5901 5903 5904 5905 5906 5907 5908 5908 5908 5908 5908 5908 5908 5908
5917 5918 5916 5917 5918 5917 5916 5915 5912 5910 5908 5906 5904 5901 5897 5894 5892 5889 5887 5888 5889 5888 5888 5887 5887 5887 5890 5894 5897 5899 5899 5900 5900 5902 5902 5902 5902 5903 5904 5905 5905 5905 5905 5905 5906 5906 5906 5906 5907
5914 5914 5915 5916 5917 5917 5916 5915 5912 5912 5911 5908 5904 5902 5899 5895 5893 5890 5888 5888 5889 5887 5886 5887 5888 5888 5890 5893 5895 5896 5897 5899 5900 5900 5901 5901 5901 5901 5902 5902 5902 5902 5902 5902 5902 5903 5903 5904 5904
5913 5912 5913 5913 5915 5916 5915 5914 5912 5910 5911 5910 5906 5903 5900 5897 5894 5892 5889 5887 5888 5889 5887 5886 5886 5888 5890 5894 5895 5895 5895 5895 5896 5897 5898 5898 5899 5900 5899 5899 5898 5898 5897 5896 5894 5896 5899 5900 5901
5913 5912 5912 5912 5914 5914 5913 5913 5913 5912 5911 5908 5906 5904 5902 5899 5895 5893 5889 5888 5887 5888 5888 5887 5887 5887 5891 5892 5894 5894 5893 5895 5896 5895 5894 5894 5894 5894 5895 5894 5893 5891 5890 5891 5891 5892 5895 5896 5897
5911 5911 5910 5912 5912 5912 5911 5911 5912 5911 5910 5908 5906 5905 5902 5899 5897 5894 5892 5889 5889 5887 5887 5887 5888 5888 5889 5891 5893 5894 5893 5894 5893 5893 5891 5889 5889 5890 5890 5888 5888 5888 5888 5888 5890 5891 5891 5892 5893
5907 5908 5909 5906 5907 5907 5908 5910 5911 5911 5911 5908 5906 5903 5901 5899 5896 5894 5893 5893 5890 5889 5890 5890 5889 5889 5890 5891 5893 5894 5894 5893 5893 5891 5890 5887 5887 5887 5885 5882 5886 5888 5888 5888 5889 5889 5889 5890 5890
5903 5905 5905 5904 5905 5906 5906 5909 5911 5911 5910 5909 5905 5901 5898 5897 5896 5894 5893 5891 5892 5891 5891 5889 5890 5885 5889 5891 5893 5894 5894 5892 5892 5890 5889 5887 5886 5885 5886 5886 5887 5887 5886 5885 5886 5887 5887 5888 5888
5899 5902 5903 5903 5904 5903 5903 5905 5908 5908 5910 5908 5905 5901 5897 5897 5895 5893 5893 5892 5891 5891 5891 5889 5884 5884 5888 5894 5893 5892 5892 5891 5890 5889 5888 5888 5886 5884 5884 5884 5884 5884 5884 5884 5884 5885 5885 5885 5884
5896 5897 5899 5900 5902 5902 5900 5902 5906 5905 5907 5908 5906 5903 5899 5898 5897 5894 5892 5891 5891 5890 5890 5889 5887 5887 5890 5893 5892 5890 5888 5888 5888 5888 5887 5886 5886 5884 5883 5882 5882 5881 5881 5881 5881 5882 5881 5881 5880
5891 5893 5895 5896 5899 5898 5898 5899 5901 5902 5901 5904 5904 5902 5900 5899 5896 5894 5891 5889 5889 5890 5889 5890 5888 5888 5889 5889 5889 5886 5886 5887 5886 5886 5885 5883 5883 5882 5881 5880 5879 5878 5878 5877 5877 5877 5876 5876 5875
Wind_Speed
21 22 26 26 24 22 21 21 21 20 17 16 16 12 10 9 8 10 11 13 13 11 11 12 12 14 14 13 14 14 14 15 15 14 15 16 15 14 14 15 15 13 12 11 13 14 15 14 15
16 20 23 22 23 19 18 18 19 18 19 16 13 11 11 8 8 9 11 11 11 10 11 12 12 14 14 14 14 13 13 14 15 13 14 14 14 13 12 12 14 14 15 14 14 15 14 14 15
15 21 24 23 21 19 20 19 18 15 17 17 15 12 11 10 7 7 9 9 8 7 9 11 13 13 14 14 14 13 12 12 12 12 12 11 11 11 11 10 11 12 13 14 15 14 14 13 13
13 21 24 25 20 16 17 15 13 14 18 17 14 11 10 9 9 5 7 9 5 4 9 10 14 14 14 14 14 14 14 13 11 11 11 11 11 11 10 8 9 9 12 13 14 13 11 10 12
19 17 25 26 20 18 13 12 15 21 20 16 14 10 8 7 7 4 6 8 5 4 9 9 12 14 15 15 14 13 15 13 11 11 10 10 10 10 9 9 9 9 11 12 12 8 8 9 9
19 14 22 24 24 22 18 20 22 22 19 16 13 9 6 5 6 5 6 5 4 6 8 10 10 12 13 13 14 13 13 14 11 11 11 11 11 11 11 11 11 11 12 11 9 6 8 7 8
11 17 20 22 23 22 23 21 25 24 21 18 14 10 7 5 4 3 5 3 3 5 7 11 10 10 12 11 12 12 11 13 12 11 12 12 12 13 13 12 11 11 11 8 5 5 7 9 10
8 14 19 23 26 22 19 19 22 23 21 22 17 8 7 4 3 1 5 4 4 5 8 10 13 10 10 9 10 10 10 12 14 12 11 12 13 14 14 13 12 11 9 6 6 7 8 8 10
10 17 19 19 24 18 21 21 21 20 21 22 16 13 7 4 1 1 3 4 5 5 7 9 8 9 10 8 11 10 9 10 12 14 13 12 12 13 15 15 14 13 12 11 10 10 11 11 11
15 20 14 18 19 23 20 25 21 20 21 26 16 12 9 6 4 2 1 1 4 5 4 5 6 6 10 8 7 7 9 9 9 12 13 11 13 12 13 12 12 12 12 12 12 12 11 9 10
15 20 20 18 17 21 22 23 22 24 24 24 22 10 7 6 6 3 1 1 1 3 4 4 4 3 9 8 6 4 8 9 8 9 10 10 10 9 9 10 10 10 11 12 11 10 10 11 9
17 17 19 21 19 22 22 18 22 22 26 22 21 15 8 5 4 0 3 5 4 4 5 4 4 1 7 8 8 6 8 8 7 8 8 7 7 5 6 7 7 7 7 8 8 7 8 9 7
12 14 20 23 21 22 19 18 19 19 20 22 19 20 6 4 3 6 7 7 7 8 7 7 5 3 3 6 6 6 5 6 7 7 6 4 4 4 2 3 3 3 4 5 6 6 5 6 5
8 14 16 19 19 24 16 16 21 18 17 25 26 25 15 10 3 9 12 9 7 7 6 7 7 5 1 1 3 3 2 7 5 6 7 2 3 3 3 2 2 1 1 4 4 4 2 2 3
3 9 13 13 8 19 15 13 16 21 18 22 23 29 19 18 16 15 11 8 9 9 8 9 6 4 4 2 1 1 0 6 8 7 8 3 2 4 4 1 2 5 6 5 4 3 3 3 1
8 7 8 8 10 12 14 18 18 18 20 22 25 27 26 23 25 11 9 9 11 9 10 11 11 12 6 4 2 2 2 3 9 8 7 5 3 3 5 3 2 8 6 7 2 2 3 4 3
2 6 6 10 11 9 9 14 16 18 25 25 23 24 25 25 23 15 6 2 13 10 12 10 11 10 10 6 3 2 2 3 9 8 7 7 5 7 9 4 1 6 3 5 3 4 3 8 6
2 6 6 7 13 9 11 12 15 13 20 21 23 25 24 25 22 19 15 5 5 12 11 19 14 12 12 7 5 3 3 5 6 4 3 7 6 9 9 6 2 5 6 7 3 3 7 2 3
3 9 5 2 5 11 13 9 11 12 16 19 20 22 24 23 20 17 14 11 5 14 13 14 18 11 11 9 7 4 4 4 4 8 4 5 8 9 6 3 2 1 2 3 2 2 1 1 1
5 5 5 4 2 7 11 10 13 10 14 17 18 21 24 24 21 18 13 5 5 4 9 6 14 15 12 13 10 7 4 3 2 3 2 2 4 6 6 6 5 6 5 5 4 4 4 4 4
7 11 13 8 2 6 7 8 10 9 13 17 19 23 22 23 24 20 13 3 2 1 6 10 13 14 14 13 11 9 6 3 4 5 4 4 7 8 8 11 12 14 16 12 13 8 6 7 9
15 18 14 9 3 3 2 5 11 5 11 12 17 20 21 24 23 21 12 4 4 4 4 7 10 11 13 11 10 10 6 6 8 9 9 11 12 12 12 13 16 18 16 16 18 20 9 10 11
17 22 13 5 1 9 7 3 13 10 5 9 14 20 20 23 22 20 11 6 3 4 3 6 8 7 7 8 8 8 7 3 7 10 9 12 14 18 18 20 21 23 26 26 21 14 13 14 13
21 21 15 9 7 7 7 4 7 13 8 12 14 15 16 19 17 17 10 6 4 2 4 5 5 8 9 11 10 8 5 5 7 8 11 12 15 17 18 22 20 21 20 24 19 17 16 17 18
19 22 17 15 12 10 9 5 4 12 14 7 11 17 15 17 14 12 8 7 4 4 3 3 2 5 9 8 8 5 5 4 4 8 12 14 12 12 17 22 24 15 12 10 12 16 16 20 21
35 28 22 19 13 10 14 10 7 11 7 12 20 17 13 12 13 11 7 6 6 5 4 2 4 8 10 7 2 1 6 5 6 7 5 4 5 6 6 3 7 9 7 7 8 9 10 10 10
26 21 20 20 16 15 14 15 6 5 5 13 19 24 14 10 12 11 8 7 5 7 8 10 12 5 5 4 2 4 5 6 7 7 8 9 8 8 5 4 4 6 7 7 8 9 10 11 13
27 24 18 10 12 13 17 19 5 8 7 8 15 21 11 5 8 9 7 6 6 9 10 11 20 3 5 5 4 5 7 8 9 8 7 8 10 8 7 8 8 8 9 10 12 13 15 16 17
27 21 16 16 16 15 18 21 9 8 10 8 10 13 12 9 11 11 8 7 6 7 6 9 9 11 11 9 9 7 8 11 11 11 11 10 11 12 12 12 13 13 13 14 15 17 18 19 20
26 21 20 23 23 20 14 16 14 9 18 10 11 12 7 13 10 12 9 8 8 7 6 7 8 11 13 14 12 10 13 13 13 13 14 14 13 13 14 16 17 17 17 17 18 20 22 22 23
Wind_Direction
75 62 63 64 60 60 53 55 59 61 59 56 51 54 69 86 86 82 74 72 64 63 70 75 76 76 77 74 77 76 73 78 78 80 81 86 90 95 97 100 105 104 98 94 93 91 93 98 104
79 70 63 59 54 56 57 48 43 41 46 53 53 53 60 68 81 82 78 80 71 65 69 76 82 80 78 72 77 77 78 76 84 82 83 86 92 97 99 101 105 109 112 108 94 91 94 100 107
65 50 51 49 48 46 46 44 42 27 30 38 45 47 43 51 61 77 83 83 79 65 69 73 77 77 77 73 74 77 79 78 82 85 88 86 89 95 101 100 96 97 101 101 100 92 77 85 86
59 41 41 38 38 42 43 40 43 36 28 25 31 31 40 36 50 54 85 81 83 65 71 71 75 74 74 74 71 73 71 73 83 88 91 92 87 90 97 97 104 102 100 101 99 89 83 90 86
41 30 32 31 44 53 45 42 35 31 21 17 18 16 33 28 49 56 71 73 82 81 78 81 88 81 75 71 72 70 74 72 78 89 91 92 92 86 87 103 118 117 109 107 109 87 84 92 113
39 27 30 38 45 38 36 36 34 29 13 6 6 6 11 24 29 46 72 70 63 90 91 84 94 86 80 75 75 74 78 81 84 96 99 101 96 90 92 100 117 124 124 117 106 92 91 115 119
44 26 27 40 46 36 30 30 38 35 24 14 8 352 352 16 8 79 97 104 107 104 98 92 89 87 78 79 73 74 83 89 94 100 107 105 102 95 91 96 110 121 129 124 108 110 128 132 129
47 25 32 44 34 34 36 37 45 39 33 24 18 7 355 26 16 66 112 142 165 127 106 97 99 83 72 71 74 69 79 89 89 94 99 105 105 100 99 100 104 112 119 113 115 120 116 105 99
39 44 43 50 39 40 40 43 45 41 39 24 11 6 8 34 322 246 116 165 187 144 116 119 115 86 61 59 52 65 97 98 95 92 86 88 88 97 100 102 105 106 105 105 101 94 88 89 90
64 57 35 45 49 48 37 28 31 31 21 13 6 360 2 15 18 341 24 201 181 146 127 121 120 94 67 59 74 78 110 100 96 100 99 93 90 84 87 91 93 100 105 107 109 106 93 99 90
79 60 28 29 25 27 22 25 32 28 15 10 15 354 24 7 5 338 271 339 339 159 158 139 104 71 76 60 53 95 138 116 101 94 94 92 91 87 89 93 99 102 107 109 118 124 105 125 113
73 50 36 35 16 14 15 24 31 34 23 19 16 10 7 357 306 350 271 197 177 197 168 141 125 73 68 63 66 66 143 126 123 111 93 85 88 81 95 96 98 101 106 114 117 125 123 128 124
73 57 51 32 21 20 24 20 19 36 24 23 4 16 56 193 253 206 211 230 186 191 160 157 159 145 81 67 75 64 159 150 144 123 105 90 96 109 84 78 108 118 113 114 123 125 130 126 123
94 64 54 36 44 29 24 18 17 30 25 14 14 8 46 23 259 203 200 205 199 197 175 173 150 135 198 66 93 93 120 184 176 161 143 131 138 166 155 116 40 358 194 189 164 144 135 122 142
103 64 51 32 24 29 32 14 10 22 23 11 23 16 27 28 18 226 184 209 214 196 185 193 170 160 196 226 136 204 115 174 180 196 204 214 222 175 168 116 352 318 293 244 213 201 171 164 173
93 49 31 43 31 12 36 40 28 9 16 21 30 35 41 36 37 89 157 203 218 216 204 196 201 159 202 193 237 249 283 226 188 193 205 207 185 197 183 208 311 335 297 237 251 297 248 214 172
5 336 349 18 39 42 44 42 34 26 16 21 33 36 34 36 36 43 49 359 232 220 218 225 210 179 190 189 209 248 13 138 166 186 194 215 226 234 202 175 315 354 166 188 159 346 305 217 180
290 353 64 49 41 56 35 29 21 19 7 14 25 24 23 28 30 30 21 355 193 204 196 222 220 197 178 183 192 185 104 100 107 124 163 220 189 160 168 166 149 82 134 157 142 17 32 186 228
337 102 110 116 54 27 8 17 4 358 8 23 25 19 18 25 31 25 20 29 30 214 225 257 210 184 169 179 186 206 156 118 116 138 114 176 169 165 171 177 175 183 152 142 181 232 261 53 325
279 191 190 236 72 9 11 356 26 12 17 22 17 17 15 20 17 14 6 28 44 184 198 192 188 187 173 187 194 207 193 150 170 181 103 79 159 196 201 225 218 262 247 241 224 257 253 264 274
242 222 237 260 31 25 54 10 33 43 28 32 20 13 8 6 13 12 7 22 249 322 205 181 174 175 174 183 198 217 209 236 250 273 281 254 239 241 244 249 239 254 229 245 244 255 258 250 270
225 222 239 253 356 359 21 51 352 355 23 22 23 20 5 1 4 9 15 62 22 351 214 169 167 160 171 188 195 203 197 222 249 250 256 268 263 258 250 255 255 261 254 251 252 243 254 266 280
233 238 242 257 304 306 282 306 32 24 21 357 14 14 358 357 359 4 18 63 108 25 90 143 150 158 179 190 200 188 186 196 248 266 274 278 281 268 261 261 249 262 253 237 240 241 242 273 273
244 248 240 234 258 313 257 317 16 22 24 345 350 3 352 343 356 1 357 5 95 28 60 99 142 155 176 177 204 217 194 234 257 272 279 282 280 278 263 257 263 262 251 251 242 252 257 264 271
244 259 242 238 256 276 266 279 343 16 40 34 28 360 353 347 345 8 351 329 324 352 26 66 118 170 184 193 219 191 194 245 276 293 295 294 296 282 274 262 249 252 247 242 254 257 266 270 280
247 252 243 229 238 258 269 268 292 7 29 18 2 340 317 330 340 342 360 337 308 293 276 302 259 255 174 162 100 315 258 268 295 308 312 344 349 358 358 191 223 245 245 236 247 259 271 277 277
250 252 258 241 253 259 262 252 302 323 4 12 3 353 296 304 310 324 335 341 295 279 280 243 285 187 132 111 17 313 290 293 303 302 295 287 288 304 308 276 249 256 265 270 276 282 283 280 277
247 250 251 262 278 265 268 244 247 302 329 357 352 6 26 337 309 317 315 310 325 321 309 309 321 79 87 6 329 320 315 316 311 304 292 281 286 288 285 282 275 273 273 276 279 281 283 285 288
230 230 244 255 258 268 267 250 249 286 293 4 9 343 9 19 349 335 331 331 344 328 322 327 327 8 352 339 316 315 323 324 311 298 291 284 275 276 278 276 275 275 275 278 282 284 283 286 287
220 233 233 252 250 252 274 257 214 270 283 275 337 341 3 23 4 332 339 340 335 344 315 316 318 338 335 330 311 327 324 313 306 296 288 283 282 282 279 277 281 282 283 286 288 287 288 288 289